Year,Month,Day,Hour,Minute,Value (Times are PST for temperature in C)
2015,09,29,00,00,10.40
2015,09,29,00,01,10.40
2015,09,29,00,02,10.40
2015,09,29,00,03,10.30
2015,09,29,00,04,10.30
2015,09,29,00,05,10.30
2015,09,29,00,06,10.20
2015,09,29,00,07,10.20
2015,09,29,00,08,10.20
2015,09,29,00,09,10.10
2015,09,29,00,10,10.10
2015,09,29,00,11,10.10
2015,09,29,00,12,10.00
2015,09,29,00,13,10.00
2015,09,29,00,14,9.90
2015,09,29,00,15,9.90
2015,09,29,00,16,9.90
2015,09,29,00,17,9.90
2015,09,29,00,18,9.90
2015,09,29,00,19,9.80
2015,09,29,00,20,9.90
2015,09,29,00,21,9.90
2015,09,29,00,22,9.90
2015,09,29,00,23,9.90
2015,09,29,00,24,9.90
2015,09,29,00,25,9.80
2015,09,29,00,26,9.80
2015,09,29,00,27,9.80
2015,09,29,00,28,9.80
2015,09,29,00,29,9.80
2015,09,29,00,30,9.80
2015,09,29,00,31,9.80
2015,09,29,00,32,9.80
2015,09,29,00,33,9.90
2015,09,29,00,34,9.80
2015,09,29,00,35,9.80
2015,09,29,00,36,9.80
2015,09,29,00,37,9.90
2015,09,29,00,38,10.00
2015,09,29,00,39,10.00
2015,09,29,00,40,10.10
2015,09,29,00,41,10.10
2015,09,29,00,42,10.00
2015,09,29,00,43,10.00
2015,09,29,00,44,10.00
2015,09,29,00,45,9.90
2015,09,29,00,46,9.90
2015,09,29,00,47,9.90
2015,09,29,00,48,9.90
2015,09,29,00,49,9.80
2015,09,29,00,50,9.80
2015,09,29,00,51,9.80
2015,09,29,00,52,9.80
2015,09,29,00,53,9.70
2015,09,29,00,54,9.70
2015,09,29,00,55,9.70
2015,09,29,00,56,9.70
2015,09,29,00,57,9.60
2015,09,29,00,58,9.60
2015,09,29,00,59,9.60
2015,09,29,01,00,9.60
2015,09,29,01,01,9.60
2015,09,29,01,02,9.70
2015,09,29,01,03,9.70
2015,09,29,01,04,9.70
2015,09,29,01,05,9.80
2015,09,29,01,06,9.80
2015,09,29,01,07,9.80
2015,09,29,01,08,9.70
2015,09,29,01,09,9.70
2015,09,29,01,10,9.70
2015,09,29,01,11,9.70
2015,09,29,01,12,9.80
2015,09,29,01,13,9.80
2015,09,29,01,14,9.70
2015,09,29,01,15,9.70
2015,09,29,01,16,9.70
2015,09,29,01,17,9.70
2015,09,29,01,18,9.70
2015,09,29,01,19,9.60
2015,09,29,01,20,9.60
2015,09,29,01,21,9.50
2015,09,29,01,22,9.50
2015,09,29,01,23,9.50
2015,09,29,01,24,9.40
2015,09,29,01,25,9.40
2015,09,29,01,26,9.40
2015,09,29,01,27,9.30
2015,09,29,01,28,9.30
2015,09,29,01,29,9.30
2015,09,29,01,30,9.30
2015,09,29,01,31,9.30
2015,09,29,01,32,9.30
2015,09,29,01,33,9.30
2015,09,29,01,34,9.30
2015,09,29,01,35,9.30
2015,09,29,01,36,9.30
2015,09,29,01,37,9.30
2015,09,29,01,38,9.30
2015,09,29,01,39,9.20
2015,09,29,01,40,9.20
2015,09,29,01,41,9.20
2015,09,29,01,42,9.20
2015,09,29,01,43,9.20
2015,09,29,01,44,9.20
2015,09,29,01,45,9.10
2015,09,29,01,46,9.10
2015,09,29,01,47,9.10
2015,09,29,01,48,9.10
2015,09,29,01,49,9.10
2015,09,29,01,50,9.10
2015,09,29,01,51,9.10
2015,09,29,01,52,9.10
2015,09,29,01,53,9.10
2015,09,29,01,54,9.10
2015,09,29,01,55,9.10
2015,09,29,01,56,9.10
2015,09,29,01,57,9.10
2015,09,29,01,58,9.10
2015,09,29,01,59,9.10
2015,09,29,02,00,9.10
2015,09,29,02,01,9.00
2015,09,29,02,02,9.00
2015,09,29,02,03,9.00
2015,09,29,02,04,9.00
2015,09,29,02,05,8.90
2015,09,29,02,06,9.00
2015,09,29,02,07,9.00
2015,09,29,02,08,8.90
2015,09,29,02,09,8.90
2015,09,29,02,10,8.90
2015,09,29,02,11,8.90
2015,09,29,02,12,8.90
2015,09,29,02,13,8.90
2015,09,29,02,14,8.90
2015,09,29,02,15,8.90
2015,09,29,02,16,8.90
2015,09,29,02,17,8.90
2015,09,29,02,18,8.90
2015,09,29,02,19,8.90
2015,09,29,02,20,8.90
2015,09,29,02,21,8.90
2015,09,29,02,22,8.90
2015,09,29,02,23,8.90
2015,09,29,02,24,8.90
2015,09,29,02,25,8.90
2015,09,29,02,26,8.90
2015,09,29,02,27,9.00
2015,09,29,02,28,9.00
2015,09,29,02,29,9.00
2015,09,29,02,30,9.00
2015,09,29,02,31,9.00
2015,09,29,02,32,9.00
2015,09,29,02,33,9.10
2015,09,29,02,34,9.10
2015,09,29,02,35,9.10
2015,09,29,02,36,9.20
2015,09,29,02,37,9.20
2015,09,29,02,38,9.30
2015,09,29,02,39,9.40
2015,09,29,02,40,9.50
2015,09,29,02,41,9.60
2015,09,29,02,42,9.70
2015,09,29,02,43,9.80
2015,09,29,02,44,9.90
2015,09,29,02,45,10.10
2015,09,29,02,46,10.10
2015,09,29,02,47,10.20
2015,09,29,02,48,10.20
2015,09,29,02,49,10.30
2015,09,29,02,50,10.30
2015,09,29,02,51,10.30
2015,09,29,02,52,10.30
2015,09,29,02,53,10.30
2015,09,29,02,54,10.30
2015,09,29,02,55,10.30
2015,09,29,02,56,10.30
2015,09,29,02,57,10.30
2015,09,29,02,58,10.20
2015,09,29,02,59,10.20
2015,09,29,03,00,10.20
2015,09,29,03,01,10.20
2015,09,29,03,02,10.10
2015,09,29,03,03,10.10
2015,09,29,03,04,10.10
2015,09,29,03,05,10.00
2015,09,29,03,06,10.00
2015,09,29,03,07,9.90
2015,09,29,03,08,9.90
2015,09,29,03,09,9.80
2015,09,29,03,10,9.80
2015,09,29,03,11,9.80
2015,09,29,03,12,9.70
2015,09,29,03,13,9.60
2015,09,29,03,14,9.60
2015,09,29,03,15,9.60
2015,09,29,03,16,9.50
2015,09,29,03,17,9.40
2015,09,29,03,18,9.40
2015,09,29,03,19,9.40
2015,09,29,03,20,9.30
2015,09,29,03,21,9.30
2015,09,29,03,22,9.30
2015,09,29,03,23,9.20
2015,09,29,03,24,9.20
2015,09,29,03,25,9.20
2015,09,29,03,26,9.10
2015,09,29,03,27,9.10
2015,09,29,03,28,9.10
2015,09,29,03,29,9.00
2015,09,29,03,30,9.00
2015,09,29,03,31,8.90
2015,09,29,03,32,8.90
2015,09,29,03,33,8.90
2015,09,29,03,34,8.90
2015,09,29,03,35,8.80
2015,09,29,03,36,8.80
2015,09,29,03,37,8.80
2015,09,29,03,38,8.80
2015,09,29,03,39,8.80
2015,09,29,03,40,8.80
2015,09,29,03,41,8.80
2015,09,29,03,42,8.80
2015,09,29,03,43,8.70
2015,09,29,03,44,8.70
2015,09,29,03,45,8.70
2015,09,29,03,46,8.60
2015,09,29,03,47,8.60
2015,09,29,03,48,8.60
2015,09,29,03,49,8.50
2015,09,29,03,50,8.50
2015,09,29,03,51,8.40
2015,09,29,03,52,8.40
2015,09,29,03,53,8.40
2015,09,29,03,54,8.40
2015,09,29,03,55,8.30
2015,09,29,03,56,8.30
2015,09,29,03,57,8.30
2015,09,29,03,58,8.20
2015,09,29,03,59,8.20
2015,09,29,04,00,8.20
2015,09,29,04,01,8.20
2015,09,29,04,02,8.20
2015,09,29,04,03,8.20
2015,09,29,04,04,8.20
2015,09,29,04,05,8.20
2015,09,29,04,06,8.20
2015,09,29,04,07,8.10
2015,09,29,04,08,8.10
2015,09,29,04,09,8.00
2015,09,29,04,10,7.90
2015,09,29,04,11,7.90
2015,09,29,04,12,7.80
2015,09,29,04,13,7.80
2015,09,29,04,14,7.80
2015,09,29,04,15,7.80
2015,09,29,04,16,7.70
2015,09,29,04,17,7.70
2015,09,29,04,18,7.70
2015,09,29,04,19,7.70
2015,09,29,04,20,7.70
2015,09,29,04,21,7.70
2015,09,29,04,22,7.70
2015,09,29,04,23,7.70
2015,09,29,04,24,7.70
2015,09,29,04,25,7.70
2015,09,29,04,26,7.70
2015,09,29,04,27,7.70
2015,09,29,04,28,7.70
2015,09,29,04,29,7.70
2015,09,29,04,30,7.70
2015,09,29,04,31,7.70
2015,09,29,04,32,7.70
2015,09,29,04,33,7.70
2015,09,29,04,34,7.60
2015,09,29,04,35,7.60
2015,09,29,04,36,7.60
2015,09,29,04,37,7.60
2015,09,29,04,38,7.60
2015,09,29,04,39,7.60
2015,09,29,04,40,7.60
2015,09,29,04,41,7.70
2015,09,29,04,42,7.70
2015,09,29,04,43,7.70
2015,09,29,04,44,7.80
2015,09,29,04,45,7.80
2015,09,29,04,46,7.90
2015,09,29,04,47,8.00
2015,09,29,04,48,8.10
2015,09,29,04,49,8.20
2015,09,29,04,50,8.30
2015,09,29,04,51,8.40
2015,09,29,04,52,8.60
2015,09,29,04,53,8.70
2015,09,29,04,54,8.70
2015,09,29,04,55,8.80
2015,09,29,04,56,8.80
2015,09,29,04,57,8.90
2015,09,29,04,58,8.90
2015,09,29,04,59,9.00
2015,09,29,05,00,9.00
2015,09,29,05,01,9.10
2015,09,29,05,02,9.10
2015,09,29,05,03,9.10
2015,09,29,05,04,9.10
2015,09,29,05,05,9.10
2015,09,29,05,06,9.10
2015,09,29,05,07,9.20
2015,09,29,05,08,9.20
2015,09,29,05,09,9.20
2015,09,29,05,10,9.20
2015,09,29,05,11,9.20
2015,09,29,05,12,9.20
2015,09,29,05,13,9.20
2015,09,29,05,14,9.10
2015,09,29,05,15,9.10
2015,09,29,05,16,9.00
2015,09,29,05,17,9.00
2015,09,29,05,18,8.90
2015,09,29,05,19,8.80
2015,09,29,05,20,8.80
2015,09,29,05,21,8.70
2015,09,29,05,22,8.70
2015,09,29,05,23,8.60
2015,09,29,05,24,8.60
2015,09,29,05,25,8.60
2015,09,29,05,26,8.50
2015,09,29,05,27,8.50
2015,09,29,05,28,8.50
2015,09,29,05,29,8.40
2015,09,29,05,30,8.40
2015,09,29,05,31,8.40
2015,09,29,05,32,8.40
2015,09,29,05,33,8.40
2015,09,29,05,34,8.30
2015,09,29,05,35,8.30
2015,09,29,05,36,8.30
2015,09,29,05,37,8.30
2015,09,29,05,38,8.30
2015,09,29,05,39,8.30
2015,09,29,05,40,8.30
2015,09,29,05,41,8.30
2015,09,29,05,42,8.30
2015,09,29,05,43,8.30
2015,09,29,05,44,8.20
2015,09,29,05,45,8.20
2015,09,29,05,46,8.20
2015,09,29,05,47,8.20
2015,09,29,05,48,8.20
2015,09,29,05,49,8.20
2015,09,29,05,50,8.20
2015,09,29,05,51,8.10
2015,09,29,05,52,8.10
2015,09,29,05,53,8.10
2015,09,29,05,54,8.10
2015,09,29,05,55,8.10
2015,09,29,05,56,8.10
2015,09,29,05,57,8.10
2015,09,29,05,58,8.10
2015,09,29,05,59,8.10
2015,09,29,06,00,8.10
2015,09,29,06,01,8.10
2015,09,29,06,02,8.20
2015,09,29,06,03,8.20
2015,09,29,06,04,8.20
2015,09,29,06,05,8.20
2015,09,29,06,06,8.20
2015,09,29,06,07,8.20
2015,09,29,06,08,8.20
2015,09,29,06,09,8.10
2015,09,29,06,10,8.10
2015,09,29,06,11,8.10
2015,09,29,06,12,8.00
2015,09,29,06,13,8.00
2015,09,29,06,14,8.00
2015,09,29,06,15,7.90
2015,09,29,06,16,7.90
2015,09,29,06,17,7.90
2015,09,29,06,18,7.90
2015,09,29,06,19,7.80
2015,09,29,06,20,7.80
2015,09,29,06,21,7.80
2015,09,29,06,22,7.80
2015,09,29,06,23,7.80
2015,09,29,06,24,7.90
2015,09,29,06,25,8.00
2015,09,29,06,26,8.00
2015,09,29,06,27,8.10
2015,09,29,06,28,8.20
2015,09,29,06,29,8.20
2015,09,29,06,30,8.30
2015,09,29,06,31,8.30
2015,09,29,06,32,8.30
2015,09,29,06,33,8.40
2015,09,29,06,34,8.40
2015,09,29,06,35,8.40
2015,09,29,06,36,8.40
2015,09,29,06,37,8.50
2015,09,29,06,38,8.50
2015,09,29,06,39,8.60
2015,09,29,06,40,8.60
2015,09,29,06,41,8.60
2015,09,29,06,42,8.60
2015,09,29,06,43,8.60
2015,09,29,06,44,8.60
2015,09,29,06,45,8.60
2015,09,29,06,46,8.60
2015,09,29,06,47,8.60
2015,09,29,06,48,8.50
2015,09,29,06,49,8.50
2015,09,29,06,50,8.50
2015,09,29,06,51,8.40
2015,09,29,06,52,8.40
2015,09,29,06,53,8.30
2015,09,29,06,54,8.20
2015,09,29,06,55,8.20
2015,09,29,06,56,8.10
2015,09,29,06,57,8.10
2015,09,29,06,58,8.00
2015,09,29,06,59,7.90
2015,09,29,07,00,7.90
2015,09,29,07,01,7.90
2015,09,29,07,02,7.80
2015,09,29,07,03,7.80
2015,09,29,07,04,7.80
2015,09,29,07,05,7.80
2015,09,29,07,06,7.80
2015,09,29,07,07,7.80
2015,09,29,07,08,7.80
2015,09,29,07,09,7.70
2015,09,29,07,10,7.70
2015,09,29,07,11,7.70
2015,09,29,07,12,7.70
2015,09,29,07,13,7.70
2015,09,29,07,14,7.70
2015,09,29,07,15,7.70
2015,09,29,07,16,7.70
2015,09,29,07,17,7.70
2015,09,29,07,18,7.60
2015,09,29,07,19,7.60
2015,09,29,07,20,7.60
2015,09,29,07,21,7.60
2015,09,29,07,22,7.60
2015,09,29,07,23,7.60
2015,09,29,07,24,7.70
2015,09,29,07,25,7.70
2015,09,29,07,26,7.70
2015,09,29,07,27,7.70
2015,09,29,07,28,7.70
2015,09,29,07,29,7.70
2015,09,29,07,30,7.70
2015,09,29,07,31,7.70
2015,09,29,07,32,7.70
2015,09,29,07,33,7.80
2015,09,29,07,34,7.80
2015,09,29,07,35,7.80
2015,09,29,07,36,7.80
2015,09,29,07,37,7.80
2015,09,29,07,38,7.80
2015,09,29,07,39,7.80
2015,09,29,07,40,7.80
2015,09,29,07,41,7.80
2015,09,29,07,42,7.80
2015,09,29,07,43,7.80
2015,09,29,07,44,7.80
2015,09,29,07,45,7.80
2015,09,29,07,46,7.80
2015,09,29,07,47,7.80
2015,09,29,07,48,7.80
2015,09,29,07,49,7.80
2015,09,29,07,50,7.80
2015,09,29,07,51,7.80
2015,09,29,07,52,7.80
2015,09,29,07,53,7.80
2015,09,29,07,54,7.80
2015,09,29,07,55,7.90
2015,09,29,07,56,7.90
2015,09,29,07,57,7.90
2015,09,29,07,58,8.00
2015,09,29,07,59,8.00
2015,09,29,08,00,8.10
2015,09,29,08,01,8.10
2015,09,29,08,02,8.10
2015,09,29,08,03,8.20
2015,09,29,08,04,8.20
2015,09,29,08,05,8.30
2015,09,29,08,06,8.30
2015,09,29,08,07,8.30
2015,09,29,08,08,8.40
2015,09,29,08,09,8.40
2015,09,29,08,10,8.50
2015,09,29,08,11,8.50
2015,09,29,08,12,8.60
2015,09,29,08,13,8.60
2015,09,29,08,14,8.60
2015,09,29,08,15,8.70
2015,09,29,08,16,8.70
2015,09,29,08,17,8.80
2015,09,29,08,18,8.90
2015,09,29,08,19,8.90
2015,09,29,08,20,9.00
2015,09,29,08,21,9.10
2015,09,29,08,22,9.20
2015,09,29,08,23,9.20
2015,09,29,08,24,9.30
2015,09,29,08,25,9.30
2015,09,29,08,26,9.40
2015,09,29,08,27,9.50
2015,09,29,08,28,9.60
2015,09,29,08,29,9.60
2015,09,29,08,30,9.70
2015,09,29,08,31,9.90
2015,09,29,08,32,10.10
2015,09,29,08,33,10.30
2015,09,29,08,34,10.50
2015,09,29,08,35,10.70
2015,09,29,08,36,10.90
2015,09,29,08,37,11.00
2015,09,29,08,38,11.20
2015,09,29,08,39,11.40
2015,09,29,08,40,11.50
2015,09,29,08,41,11.60
2015,09,29,08,42,11.80
2015,09,29,08,43,11.90
2015,09,29,08,44,12.00
2015,09,29,08,45,12.10
2015,09,29,08,46,12.20
2015,09,29,08,47,12.20
2015,09,29,08,48,12.30
2015,09,29,08,49,12.40
2015,09,29,08,50,12.50
2015,09,29,08,51,12.50
2015,09,29,08,52,12.60
2015,09,29,08,53,12.70
2015,09,29,08,54,12.70
2015,09,29,08,55,12.80
2015,09,29,08,56,12.80
2015,09,29,08,57,12.90
2015,09,29,08,58,12.90
2015,09,29,08,59,13.00
2015,09,29,09,00,13.00
2015,09,29,09,01,13.10
2015,09,29,09,02,13.10
2015,09,29,09,03,13.20
2015,09,29,09,04,13.20
2015,09,29,09,05,13.20
2015,09,29,09,06,13.20
2015,09,29,09,07,13.30
2015,09,29,09,08,13.30
2015,09,29,09,09,13.30
2015,09,29,09,10,13.40
2015,09,29,09,11,13.40
2015,09,29,09,12,13.40
2015,09,29,09,13,13.50
2015,09,29,09,14,13.50
2015,09,29,09,15,13.50
2015,09,29,09,16,13.60
2015,09,29,09,17,13.60
2015,09,29,09,18,13.60
2015,09,29,09,19,13.60
2015,09,29,09,20,13.60
2015,09,29,09,21,13.60
2015,09,29,09,22,13.60
2015,09,29,09,23,13.60
2015,09,29,09,24,13.60
2015,09,29,09,25,13.70
2015,09,29,09,26,13.70
2015,09,29,09,27,13.70
2015,09,29,09,28,13.70
2015,09,29,09,29,13.70
2015,09,29,09,30,13.70
2015,09,29,09,31,13.70
2015,09,29,09,32,13.70
2015,09,29,09,33,13.70
2015,09,29,09,34,13.70
2015,09,29,09,35,13.80
2015,09,29,09,36,13.80
2015,09,29,09,37,13.80
2015,09,29,09,38,13.80
2015,09,29,09,39,13.80
2015,09,29,09,40,13.80
2015,09,29,09,41,13.90
2015,09,29,09,42,13.90
2015,09,29,09,43,13.90
2015,09,29,09,44,13.90
2015,09,29,09,45,13.90
2015,09,29,09,46,13.90
2015,09,29,09,47,14.00
2015,09,29,09,48,14.00
2015,09,29,09,49,14.00
2015,09,29,09,50,14.00
2015,09,29,09,51,14.00
2015,09,29,09,52,14.00
2015,09,29,09,53,14.00
2015,09,29,09,54,14.10
2015,09,29,09,55,14.10
2015,09,29,09,56,14.10
2015,09,29,09,57,14.10
2015,09,29,09,58,14.10
2015,09,29,09,59,14.10
2015,09,29,10,00,14.10
2015,09,29,10,01,14.20
2015,09,29,10,02,14.20
2015,09,29,10,03,14.20
2015,09,29,10,04,14.20
2015,09,29,10,05,14.20
2015,09,29,10,06,14.20
2015,09,29,10,07,14.20
2015,09,29,10,08,14.30
2015,09,29,10,09,14.30
2015,09,29,10,10,14.30
2015,09,29,10,11,14.30
2015,09,29,10,12,14.30
2015,09,29,10,13,14.30
2015,09,29,10,14,14.40
2015,09,29,10,15,14.40
2015,09,29,10,16,14.40
2015,09,29,10,17,14.40
2015,09,29,10,18,14.40
2015,09,29,10,19,14.50
2015,09,29,10,20,14.50
2015,09,29,10,21,14.50
2015,09,29,10,22,14.60
2015,09,29,10,23,14.60
2015,09,29,10,24,14.60
2015,09,29,10,25,14.60
2015,09,29,10,26,14.70
2015,09,29,10,27,14.70
2015,09,29,10,28,14.70
2015,09,29,10,29,14.70
2015,09,29,10,30,14.70
2015,09,29,10,31,14.70
2015,09,29,10,32,14.60
2015,09,29,10,33,14.60
2015,09,29,10,34,14.60
2015,09,29,10,35,14.60
2015,09,29,10,36,14.60
2015,09,29,10,37,14.60
2015,09,29,10,38,14.60
2015,09,29,10,39,14.60
2015,09,29,10,40,14.60
2015,09,29,10,41,14.60
2015,09,29,10,42,14.70
2015,09,29,10,43,14.70
2015,09,29,10,44,14.70
2015,09,29,10,45,14.70
2015,09,29,10,46,14.80
2015,09,29,10,47,14.80
2015,09,29,10,48,14.80
2015,09,29,10,49,14.90
2015,09,29,10,50,14.90
2015,09,29,10,51,14.90
2015,09,29,10,52,14.90
2015,09,29,10,53,14.90
2015,09,29,10,54,14.90
2015,09,29,10,55,14.90
2015,09,29,10,56,14.90
2015,09,29,10,57,14.90
2015,09,29,10,58,14.90
2015,09,29,10,59,14.90
2015,09,29,11,00,14.90
2015,09,29,11,01,14.90
2015,09,29,11,02,14.90
2015,09,29,11,03,14.90
2015,09,29,11,04,14.90
2015,09,29,11,05,14.90
2015,09,29,11,06,14.90
2015,09,29,11,07,15.00
2015,09,29,11,08,15.00
2015,09,29,11,09,15.10
2015,09,29,11,10,15.20
2015,09,29,11,11,15.30
2015,09,29,11,12,15.30
2015,09,29,11,13,15.40
2015,09,29,11,14,15.40
2015,09,29,11,15,15.40
2015,09,29,11,16,15.50
2015,09,29,11,17,15.50
2015,09,29,11,18,15.60
2015,09,29,11,19,15.60
2015,09,29,11,20,15.50
2015,09,29,11,21,15.50
2015,09,29,11,22,15.50
2015,09,29,11,23,15.50
2015,09,29,11,24,15.50
2015,09,29,11,25,15.50
2015,09,29,11,26,15.50
2015,09,29,11,27,15.50
2015,09,29,11,28,15.50
2015,09,29,11,29,15.50
2015,09,29,11,30,15.50
2015,09,29,11,31,15.50
2015,09,29,11,32,15.50
2015,09,29,11,33,15.50
2015,09,29,11,34,15.50
2015,09,29,11,35,15.50
2015,09,29,11,36,15.50
2015,09,29,11,37,15.50
2015,09,29,11,38,15.50
2015,09,29,11,39,15.50
2015,09,29,11,40,15.60
2015,09,29,11,41,15.60
2015,09,29,11,42,15.60
2015,09,29,11,43,15.60
2015,09,29,11,44,15.60
2015,09,29,11,45,15.70
2015,09,29,11,46,15.70
2015,09,29,11,47,15.70
2015,09,29,11,48,15.70
2015,09,29,11,49,15.70
2015,09,29,11,50,15.70
2015,09,29,11,51,15.60
2015,09,29,11,52,15.70
2015,09,29,11,53,15.70
2015,09,29,11,54,15.70
2015,09,29,11,55,15.80
2015,09,29,11,56,15.80
2015,09,29,11,57,15.80
2015,09,29,11,58,15.80
2015,09,29,11,59,15.90
2015,09,29,12,00,15.90
2015,09,29,12,01,15.90
2015,09,29,12,02,16.00
2015,09,29,12,03,16.00
2015,09,29,12,04,16.00
2015,09,29,12,05,16.00
2015,09,29,12,06,16.00
2015,09,29,12,07,16.10
2015,09,29,12,08,16.10
2015,09,29,12,09,16.20
2015,09,29,12,10,16.30
2015,09,29,12,11,16.30
2015,09,29,12,12,16.40
2015,09,29,12,13,16.40
2015,09,29,12,14,16.40
2015,09,29,12,15,16.50
2015,09,29,12,16,16.50
2015,09,29,12,17,16.60
2015,09,29,12,18,16.60
2015,09,29,12,19,16.70
2015,09,29,12,20,16.70
2015,09,29,12,21,16.80
2015,09,29,12,22,16.80
2015,09,29,12,23,16.80
2015,09,29,12,24,16.90
2015,09,29,12,25,16.80
2015,09,29,12,26,16.80
2015,09,29,12,27,16.80
2015,09,29,12,28,16.80
2015,09,29,12,29,16.80
2015,09,29,12,30,16.70
2015,09,29,12,31,16.70
2015,09,29,12,32,16.70
2015,09,29,12,33,16.70
2015,09,29,12,34,16.80
2015,09,29,12,35,16.80
2015,09,29,12,36,16.80
2015,09,29,12,37,16.80
2015,09,29,12,38,16.80
2015,09,29,12,39,16.90
2015,09,29,12,40,16.90
2015,09,29,12,41,16.90
2015,09,29,12,42,16.90
2015,09,29,12,43,17.00
2015,09,29,12,44,17.00
2015,09,29,12,45,17.10
2015,09,29,12,46,17.10
2015,09,29,12,47,17.10
2015,09,29,12,48,17.10
2015,09,29,12,49,17.10
2015,09,29,12,50,17.10
2015,09,29,12,51,17.00
2015,09,29,12,52,17.10
2015,09,29,12,53,17.10
2015,09,29,12,54,17.10
2015,09,29,12,55,17.10
2015,09,29,12,56,17.10
2015,09,29,12,57,17.10
2015,09,29,12,58,17.20
2015,09,29,12,59,17.20
2015,09,29,13,00,17.30
2015,09,29,13,01,17.30
2015,09,29,13,02,17.30
2015,09,29,13,03,17.40
2015,09,29,13,04,17.40
2015,09,29,13,05,17.50
2015,09,29,13,06,17.50
2015,09,29,13,07,17.60
2015,09,29,13,08,17.60
2015,09,29,13,09,17.60
2015,09,29,13,10,17.60
2015,09,29,13,11,17.60
2015,09,29,13,12,17.60
2015,09,29,13,13,17.60
2015,09,29,13,14,17.60
2015,09,29,13,15,17.60
2015,09,29,13,16,17.70
2015,09,29,13,17,17.70
2015,09,29,13,18,17.70
2015,09,29,13,19,17.70
2015,09,29,13,20,17.70
2015,09,29,13,21,17.70
2015,09,29,13,22,17.70
2015,09,29,13,23,17.70
2015,09,29,13,24,17.80
2015,09,29,13,25,17.80
2015,09,29,13,26,17.90
2015,09,29,13,27,17.90
2015,09,29,13,28,18.00
2015,09,29,13,29,18.00
2015,09,29,13,30,18.00
2015,09,29,13,31,18.00
2015,09,29,13,32,18.00
2015,09,29,13,33,18.00
2015,09,29,13,34,18.00
2015,09,29,13,35,18.10
2015,09,29,13,36,18.10
2015,09,29,13,37,18.10
2015,09,29,13,38,18.10
2015,09,29,13,39,18.10
2015,09,29,13,40,18.10
2015,09,29,13,41,18.10
2015,09,29,13,42,18.20
2015,09,29,13,43,18.20
2015,09,29,13,44,18.20
2015,09,29,13,45,18.20
2015,09,29,13,46,18.20
2015,09,29,13,47,18.30
2015,09,29,13,48,18.40
2015,09,29,13,49,18.40
2015,09,29,13,50,18.50
2015,09,29,13,51,18.50
2015,09,29,13,52,18.60
2015,09,29,13,53,18.60
2015,09,29,13,54,18.60
2015,09,29,13,55,18.60
2015,09,29,13,56,18.60
2015,09,29,13,57,18.60
2015,09,29,13,58,18.60
2015,09,29,13,59,18.60
2015,09,29,14,00,18.60
2015,09,29,14,01,18.50
2015,09,29,14,02,18.50
2015,09,29,14,03,18.60
2015,09,29,14,04,18.60
2015,09,29,14,05,18.70
2015,09,29,14,06,18.80
2015,09,29,14,07,18.80
2015,09,29,14,08,18.80
2015,09,29,14,09,18.90
2015,09,29,14,10,18.90
2015,09,29,14,11,18.90
2015,09,29,14,12,18.90
2015,09,29,14,13,18.90
2015,09,29,14,14,18.90
2015,09,29,14,15,18.90
2015,09,29,14,16,19.00
2015,09,29,14,17,19.10
2015,09,29,14,18,19.20
2015,09,29,14,19,19.20
2015,09,29,14,20,19.20
2015,09,29,14,21,19.20
2015,09,29,14,22,19.30
2015,09,29,14,23,19.30
2015,09,29,14,24,19.30
2015,09,29,14,25,19.40
2015,09,29,14,26,19.40
2015,09,29,14,27,19.50
2015,09,29,14,28,19.50
2015,09,29,14,29,19.60
2015,09,29,14,30,19.60
2015,09,29,14,31,19.70
2015,09,29,14,32,19.80
2015,09,29,14,33,19.80
2015,09,29,14,34,19.90
2015,09,29,14,35,20.00
2015,09,29,14,36,20.10
2015,09,29,14,37,20.10
2015,09,29,14,38,20.20
2015,09,29,14,39,20.20
2015,09,29,14,40,20.20
2015,09,29,14,41,20.20
2015,09,29,14,42,20.30
2015,09,29,14,43,20.30
2015,09,29,14,44,20.40
2015,09,29,14,45,20.40
2015,09,29,14,46,20.50
2015,09,29,14,47,20.50
2015,09,29,14,48,20.60
2015,09,29,14,49,20.60
2015,09,29,14,50,20.70
2015,09,29,14,51,20.70
2015,09,29,14,52,20.70
2015,09,29,14,53,20.70
2015,09,29,14,54,20.70
2015,09,29,14,55,20.70
2015,09,29,14,56,20.70
2015,09,29,14,57,20.70
2015,09,29,14,58,20.70
2015,09,29,14,59,20.60
2015,09,29,15,00,20.60
2015,09,29,15,01,20.50
2015,09,29,15,02,20.40
2015,09,29,15,03,20.40
2015,09,29,15,04,20.40
2015,09,29,15,05,20.30
2015,09,29,15,06,20.30
2015,09,29,15,07,20.30
2015,09,29,15,08,20.30
2015,09,29,15,09,20.40
2015,09,29,15,10,20.40
2015,09,29,15,11,20.50
2015,09,29,15,12,20.50
2015,09,29,15,13,20.50
2015,09,29,15,14,20.50
2015,09,29,15,15,20.60
2015,09,29,15,16,20.60
2015,09,29,15,17,20.60
2015,09,29,15,18,20.70
2015,09,29,15,19,20.70
2015,09,29,15,20,20.80
2015,09,29,15,21,20.80
2015,09,29,15,22,20.80
2015,09,29,15,23,20.70
2015,09,29,15,24,20.70
2015,09,29,15,25,20.70
2015,09,29,15,26,20.70
2015,09,29,15,27,20.70
2015,09,29,15,28,20.70
2015,09,29,15,29,20.70
2015,09,29,15,30,20.70
2015,09,29,15,31,20.80
2015,09,29,15,32,20.80
2015,09,29,15,33,20.80
2015,09,29,15,34,20.80
2015,09,29,15,35,20.70
2015,09,29,15,36,20.70
2015,09,29,15,37,20.70
2015,09,29,15,38,20.80
2015,09,29,15,39,20.80
2015,09,29,15,40,20.90
2015,09,29,15,41,20.90
2015,09,29,15,42,21.00
2015,09,29,15,43,21.00
2015,09,29,15,44,20.90
2015,09,29,15,45,20.90
2015,09,29,15,46,20.90
2015,09,29,15,47,21.00
2015,09,29,15,48,21.00
2015,09,29,15,49,21.00
2015,09,29,15,50,21.10
2015,09,29,15,51,21.10
2015,09,29,15,52,21.10
2015,09,29,15,53,21.10
2015,09,29,15,54,21.10
2015,09,29,15,55,21.10
2015,09,29,15,56,21.00
2015,09,29,15,57,21.00
2015,09,29,15,58,21.00
2015,09,29,15,59,21.00
2015,09,29,16,00,21.00
2015,09,29,16,01,20.90
2015,09,29,16,02,20.90
2015,09,29,16,03,20.90
2015,09,29,16,04,20.80
2015,09,29,16,05,20.80
2015,09,29,16,06,20.80
2015,09,29,16,07,20.80
2015,09,29,16,08,20.80
2015,09,29,16,09,20.80
2015,09,29,16,10,20.90
2015,09,29,16,11,20.90
2015,09,29,16,12,21.00
2015,09,29,16,13,21.00
2015,09,29,16,14,21.10
2015,09,29,16,15,21.10
2015,09,29,16,16,21.10
2015,09,29,16,17,21.10
2015,09,29,16,18,21.10
2015,09,29,16,19,21.00
2015,09,29,16,20,21.00
2015,09,29,16,21,20.90
2015,09,29,16,22,20.90
2015,09,29,16,23,20.90
2015,09,29,16,24,20.90
2015,09,29,16,25,20.80
2015,09,29,16,26,20.80
2015,09,29,16,27,20.80
2015,09,29,16,28,20.70
2015,09,29,16,29,20.70
2015,09,29,16,30,20.60
2015,09,29,16,31,20.60
2015,09,29,16,32,20.60
2015,09,29,16,33,20.60
2015,09,29,16,34,20.60
2015,09,29,16,35,20.50
2015,09,29,16,36,20.50
2015,09,29,16,37,20.40
2015,09,29,16,38,20.30
2015,09,29,16,39,20.20
2015,09,29,16,40,20.10
2015,09,29,16,41,20.00
2015,09,29,16,42,19.90
2015,09,29,16,43,19.90
2015,09,29,16,44,19.80
2015,09,29,16,45,19.80
2015,09,29,16,46,19.80
2015,09,29,16,47,19.80
2015,09,29,16,48,19.80
2015,09,29,16,49,19.70
2015,09,29,16,50,19.60
2015,09,29,16,51,19.50
2015,09,29,16,52,19.40
2015,09,29,16,53,19.30
2015,09,29,16,54,19.20
2015,09,29,16,55,19.20
2015,09,29,16,56,19.10
2015,09,29,16,57,19.10
2015,09,29,16,58,19.10
2015,09,29,16,59,19.10
2015,09,29,17,00,19.10
2015,09,29,17,01,19.10
2015,09,29,17,02,19.20
2015,09,29,17,03,19.20
2015,09,29,17,04,19.20
2015,09,29,17,05,19.20
2015,09,29,17,06,19.20
2015,09,29,17,07,19.20
2015,09,29,17,08,19.20
2015,09,29,17,09,19.20
2015,09,29,17,10,19.20
2015,09,29,17,11,19.20
2015,09,29,17,12,19.30
2015,09,29,17,13,19.20
2015,09,29,17,14,19.30
2015,09,29,17,15,19.30
2015,09,29,17,16,19.30
2015,09,29,17,17,19.30
2015,09,29,17,18,19.40
2015,09,29,17,19,19.50
2015,09,29,17,20,19.50
2015,09,29,17,21,19.50
2015,09,29,17,22,19.60
2015,09,29,17,23,19.60
2015,09,29,17,24,19.60
2015,09,29,17,25,19.60
2015,09,29,17,26,19.60
2015,09,29,17,27,19.60
2015,09,29,17,28,19.60
2015,09,29,17,29,19.60
2015,09,29,17,30,19.70
2015,09,29,17,31,19.70
2015,09,29,17,32,19.70
2015,09,29,17,33,19.70
2015,09,29,17,34,19.70
2015,09,29,17,35,19.80
2015,09,29,17,36,19.80
2015,09,29,17,37,19.80
2015,09,29,17,38,19.90
2015,09,29,17,39,19.90